Breckenridge, TX

7:40 PM CST on January 23, 2017 (GMT -0600)
Stephens County

Weather History for KBKD - February, 2014

Change the Weather History Date:

Saturday, February 8, 2014

  Actual Average (KMWL) Record (KMWL)
Temperature  
Mean Temperature 51 °F -  
Max Temperature 72 °F 56 °F 82 °F (1999)
Min Temperature 30 °F 35 °F 28 °F (2011)
Degree Days  
Heating Degree Days 14    
Growing Degree Days 1 (Base 50)    
Moisture  
Dew Point 32 °F    
Average Humidity 63    
Maximum Humidity 99    
Minimum Humidity 22    
Precipitation  
Precipitation 0.00 in - - ()
Sea Level Pressure  
Sea Level Pressure 30.03 in    
Wind  
Wind Speed 7 mph (SSW)    
Max Wind Speed 15 mph    
Max Gust Speed 23 mph    
Visibility 10 miles    
Events      
Averages and records for this station are not official NWS values.
T = Trace of Precipitation, MM = Missing Value Source: NWS Daily Summary

Daily Weather History Graph

Daily Weather History Graph

Search for Another Location

Airport or City:

Trip Planner

Search our weather history database for the weather conditions in past years. The results will help you decide how hot, cold, wet, or windy it might be!

Date:

Astronomy

Feb. 08, 2014 Rise Set
Actual Time 7:24 AM CST 6:14 PM CST
Civil Twilight 6:59 AM CST 6:40 PM CST
Nautical Twilight 6:30 AM CST 7:09 PM CST
Astronomical Twilight 6:01 AM CST 7:38 PM CST
Moon 1:15 PM CST (2/8) 2:34 AM CST (2/8)
Length of Visible Light 11h 40m
Length of Day
10h 49m
Waxing Gibbous, 69% of the Moon is Illuminated
Feb 8
Waxing Gibbous
Feb 14
Full
Feb 22
Last Quarter
Mar 1
New
Mar 8
First Quarter

Hourly Weather History & Observations

Time (CST) Temp. Windchill Dew Point Humidity Pressure Visibility Wind Dir Wind Speed Gust Speed Precip Events Conditions
12:10 AM 30.2 °F 21.3 °F 29.1 °F 96% 30.12 in 7.0 mi South 10.4 mph - N/A   Overcast
12:30 AM 30.7 °F 23.3 °F 29.7 °F 96% 30.12 in 10.0 mi South 8.1 mph - N/A   Overcast
12:50 AM 31.1 °F 21.9 °F 30.2 °F 96% 30.12 in 7.0 mi South 11.5 mph - N/A   Overcast
1:10 AM 31.3 °F 23.9 °F 30.4 °F 96% 30.12 in 7.0 mi South 8.1 mph - N/A   Overcast
1:30 AM 31.5 °F 24.2 °F 30.7 °F 97% 30.11 in 7.0 mi SSE 8.1 mph - N/A   Overcast
1:50 AM 31.3 °F 23.9 °F 30.9 °F 99% 30.10 in 7.0 mi South 8.1 mph - N/A   Mostly Cloudy
2:10 AM 31.5 °F 24.2 °F 30.9 °F 98% 30.08 in 7.0 mi SSE 8.1 mph - N/A   Scattered Clouds
2:30 AM 31.5 °F 24.2 °F 31.1 °F 99% 30.07 in 7.0 mi SSE 8.1 mph - N/A   Clear
2:50 AM 31.3 °F 25.6 °F 30.9 °F 99% 30.07 in 7.0 mi SSE 5.8 mph - N/A   Clear
3:10 AM 31.1 °F 24.5 °F 30.6 °F 98% 30.07 in 7.0 mi SSE 6.9 mph - N/A   Clear
3:30 AM 31.1 °F 23.7 °F 30.7 °F 99% 30.06 in 7.0 mi SSE 8.1 mph - N/A   Clear
3:50 AM 31.1 °F 23.7 °F 30.7 °F 99% 30.05 in 10.0 mi SSE 8.1 mph - N/A   Clear
4:10 AM 31.3 °F 23.9 °F 30.7 °F 98% 30.05 in 10.0 mi SSE 8.1 mph - N/A   Clear
4:30 AM 31.6 °F 25.1 °F 30.9 °F 97% 30.05 in 10.0 mi South 6.9 mph - N/A   Clear
4:50 AM 31.8 °F 25.4 °F 30.9 °F 96% 30.05 in 10.0 mi SSE 6.9 mph - N/A   Clear
5:10 AM 31.8 °F 25.4 °F 30.7 °F 96% 30.05 in 10.0 mi South 6.9 mph - N/A   Clear
5:30 AM 32.0 °F 24.8 °F 30.9 °F 96% 30.05 in 10.0 mi South 8.1 mph - N/A   Clear
5:50 AM 32.2 °F 27.7 °F 30.6 °F 94% 30.06 in 10.0 mi South 4.6 mph - N/A   Clear
6:10 AM 32.0 °F 26.4 °F 30.9 °F 96% 30.06 in 10.0 mi South 5.8 mph - N/A   Clear
6:30 AM 32.0 °F 25.6 °F 30.4 °F 94% 30.07 in 10.0 mi South 6.9 mph - N/A   Clear
6:50 AM 32.0 °F 28.7 °F 30.6 °F 94% 30.07 in 10.0 mi SSE 3.5 mph - N/A   Clear
7:10 AM 31.6 °F 28.3 °F 30.2 °F 94% 30.08 in 10.0 mi South 3.5 mph - N/A   Clear
7:30 AM 31.1 °F 27.7 °F 30.0 °F 96% 30.09 in 10.0 mi South 3.5 mph - N/A   Clear
7:50 AM 31.8 °F 25.4 °F 30.7 °F 96% 30.10 in 10.0 mi South 6.9 mph - N/A   Clear
8:10 AM 33.8 °F 28.6 °F 31.1 °F 90% 30.11 in 10.0 mi South 5.8 mph - N/A   Clear
8:30 AM 35.1 °F 31.0 °F 31.6 °F 87% 30.10 in 10.0 mi South 4.6 mph - N/A   Clear
8:50 AM 37.6 °F 31.6 °F 32.2 °F 81% 30.09 in 10.0 mi South 8.1 mph - N/A   Clear
9:10 AM 39.9 °F 34.5 °F 32.0 °F 73% 30.09 in 10.0 mi SSW 8.1 mph - N/A   Clear
9:30 AM 42.3 °F 37.3 °F 32.2 °F 67% 30.09 in 10.0 mi SSW 8.1 mph - N/A   Clear
9:50 AM 44.8 °F 40.4 °F 32.2 °F 61% 30.08 in 10.0 mi SSW 8.1 mph - N/A   Clear
10:10 AM 48.2 °F - 32.9 °F 55% 30.08 in 10.0 mi SW 6.9 mph - N/A   Clear
10:30 AM 50.7 °F - 32.7 °F 50% 30.08 in 10.0 mi SW 6.9 mph - N/A   Clear
10:50 AM 53.1 °F - 32.7 °F 46% 30.09 in 10.0 mi WSW 6.9 mph - N/A   Clear
11:10 AM 55.2 °F - 32.7 °F 43% 30.08 in 10.0 mi WSW 4.6 mph - N/A   Clear
11:35 AM 57.9 °F - 33.1 °F 39% 30.07 in 10.0 mi SW 5.8 mph - N/A   Clear
11:50 AM 59.5 °F - 32.9 °F 37% 30.05 in 10.0 mi SW 5.8 mph - N/A   Clear
12:10 PM 61.3 °F - 33.6 °F 35% 30.03 in 10.0 mi South 4.6 mph - N/A   Clear
12:30 PM 63.5 °F - 33.3 °F 32% 30.02 in 10.0 mi SW 6.9 mph - N/A   Clear
12:50 PM 65.3 °F - 33.8 °F 31% 30.00 in 10.0 mi SSW 9.2 mph - N/A   Clear
1:10 PM 66.2 °F - 34.2 °F 30% 29.98 in 10.0 mi SW 10.4 mph - N/A   Clear
1:30 PM 68.4 °F - 33.8 °F 28% 29.97 in 10.0 mi SW 9.2 mph 18.4 mph N/A   Clear
1:50 PM 69.3 °F - 33.6 °F 27% 29.97 in 10.0 mi WSW 10.4 mph - N/A   Clear
2:10 PM 70.2 °F - 33.6 °F 26% 29.96 in 10.0 mi SW 13.8 mph - N/A   Clear
2:30 PM 70.9 °F - 32.5 °F 24% 29.95 in 10.0 mi WSW 13.8 mph 18.4 mph N/A   Clear
2:50 PM 71.4 °F - 32.9 °F 24% 29.94 in 10.0 mi SW 10.4 mph 19.6 mph N/A   Clear
3:10 PM 71.8 °F - 33.3 °F 24% 29.93 in 10.0 mi SW 9.2 mph - N/A   Clear
3:30 PM 72.1 °F - 31.1 °F 22% 29.93 in 10.0 mi West 10.4 mph 19.6 mph N/A   Clear
3:50 PM 72.5 °F - 31.1 °F 22% 29.93 in 10.0 mi West 11.5 mph 16.1 mph N/A   Clear
4:10 PM 71.6 °F - 32.0 °F 23% 29.93 in 10.0 mi WSW 15.0 mph 23.0 mph N/A   Clear
4:30 PM 70.7 °F - 32.9 °F 25% 29.93 in 10.0 mi WSW 10.4 mph 17.3 mph N/A   Clear
4:50 PM 68.7 °F - 32.7 °F 26% 29.93 in 10.0 mi WSW 10.4 mph - N/A   Clear
5:10 PM 66.2 °F - 33.8 °F 30% 29.93 in 10.0 mi SSW 6.9 mph - N/A   Clear
5:30 PM 66.0 °F - 34.3 °F 31% 29.93 in 10.0 mi SSW 5.8 mph - N/A   Clear
5:50 PM 64.4 °F - 33.6 °F 32% 29.94 in 10.0 mi SSW 3.5 mph - N/A   Clear
6:10 PM 64.4 °F - 32.9 °F 31% 29.94 in 10.0 mi SSW 3.5 mph - N/A   Clear
6:30 PM 61.5 °F - 32.4 °F 33% 29.94 in 10.0 mi South 3.5 mph - N/A   Clear
6:50 PM 58.1 °F - 32.7 °F 38% 29.96 in 10.0 mi South 5.8 mph - N/A   Clear
7:10 PM 59.4 °F - 32.9 °F 37% 29.96 in 10.0 mi South 8.1 mph - N/A   Clear
7:30 PM 56.1 °F - 33.3 °F 42% 29.98 in 10.0 mi SSW 4.6 mph - N/A   Clear
7:50 PM 57.4 °F - 32.2 °F 39% 29.98 in 10.0 mi South 6.9 mph - N/A   Clear
8:10 PM 54.7 °F - 33.1 °F 44% 29.98 in 10.0 mi Calm Calm - N/A   Clear
8:30 PM 50.4 °F - 34.0 °F 53% 29.99 in 10.0 mi Calm Calm - N/A   Clear
8:50 PM 49.8 °F - 33.8 °F 54% 29.98 in 10.0 mi Calm Calm - N/A   Clear
9:10 PM 50.2 °F - 33.8 °F 53% 29.99 in 10.0 mi Calm Calm - N/A   Clear
9:30 PM 46.8 °F - 33.3 °F 59% 30.00 in 10.0 mi Calm Calm - N/A   Clear
9:50 PM 44.8 °F - 33.1 °F 64% 30.01 in 10.0 mi Calm Calm - N/A   Clear
10:10 PM 43.3 °F 41.7 °F 34.0 °F 70% 30.01 in 10.0 mi WNW 3.5 mph - N/A   Clear
10:30 PM 43.3 °F - 33.4 °F 68% 30.02 in 10.0 mi Calm Calm - N/A   Clear
10:50 PM 44.2 °F - 33.4 °F 66% 30.02 in 10.0 mi Calm Calm - N/A   Clear
11:10 PM 42.1 °F - 33.1 °F 70% 30.02 in 10.0 mi Calm Calm - N/A   Clear
11:30 PM 41.9 °F 40.0 °F 33.3 °F 71% 30.01 in 10.0 mi West 3.5 mph - N/A   Clear
11:50 PM 40.8 °F 37.8 °F 33.8 °F 76% 30.01 in 10.0 mi WNW 4.6 mph - N/A   Clear